Regional Weather Roundup
Issued by NWS

Home | Current Version | Previous Version | Graphics & Text | Print | Product List | Glossary On
Versions: 1 2 3 4 5 6 7 8 9 10 11 12 13 14 15 16 17 18 19 20 21 22 23 24 25 26 27 28 29 30 31 32 33 34 35 36 37 38 39 40 41 42 43 44 45 46 47 48 49 50
730
ASUS43 KMKX 110021
RWRWI

WISCONSIN REGIONAL WEATHER ROUNDUP
NATIONAL WEATHER SERVICE MILWAUKEE/SULLIVAN WI
600 PM CST SAT DEC 10 2016

NOTE: "FAIR" INDICATES FEW OR NO CLOUDS BELOW 12,000 FEET WITH NO
SIGNIFICANT WEATHER AND/OR OBSTRUCTIONS TO VISIBILITY.

WIZ001-002-006>008-014>016-023>028-110100-
NORTHWEST WISCONSIN

CITY           SKY/WX    TMP DP  RH WIND       PRES   REMARKS
SUPERIOR ARPT  CLOUDY     7   1  78 CALM      30.33F
6HR MIN TEMP:   6; 6HR MAX TEMP:  11;

ASHLAND        CLOUDY     2  -1  88 CALM      30.33F
6HR MIN TEMP:   2; 6HR MAX TEMP:  11;

HAYWARD        MOCLDY     9   4  80 CALM      30.27F
6HR MIN TEMP:   9; 6HR MAX TEMP:  13;

SIREN          CLOUDY    10   2  70 CALM      30.29F
6HR MIN TEMP:  10; 6HR MAX TEMP:  13;

CUMBERLAND     MOCLDY    10   1  67 E3        30.26F
RICE LAKE      MOCLDY    11   3  69 SE6       30.29F WCI   2
6HR MIN TEMP:  10; 6HR MAX TEMP:  13;

CHETEK         MOCLDY    11   3  69 SE6       30.29F WCI   2
6HR MIN TEMP:  10; 6HR MAX TEMP:  12;

LADYSMITH      MOCLDY    11   4  75 CALM      30.30F
6HR MIN TEMP:  11; 6HR MAX TEMP:  13;

EAU CLAIRE     LGT SNOW  13   6  74 SE7       30.30F WCI   3
6HR MIN TEMP:  11; 6HR MAX TEMP:  14; 6HR PCP: TRACE;

MENOMONIE      LGT SNOW  13   8  82 E7        30.30F WCI   3
6HR MIN TEMP:  11; 6HR MAX TEMP:  14;

NEW RICHMOND   CLOUDY    11   6  78 SE6       30.27F HAZE    WCI   2
6HR MIN TEMP:  10; 6HR MAX TEMP:  13;

OSCEOLA        FLURRIES  13   7  78 SE7       30.31F WCI   2
6HR MIN TEMP:  11; 6HR MAX TEMP:  13;

$$

WIZ003>005-009-010-017-018-110100-
NORTH CENTRAL WISCONSIN

CITY           SKY/WX    TMP DP  RH WIND       PRES   REMARKS
MANITOWISH WTR CLEAR     -4  -5  96 CALM      30.25F
6HR MIN TEMP:  -4; 6HR MAX TEMP:   8;

ARBOR VITAE    CLEAR      3  -2  81 CALM      30.26F
6HR MIN TEMP:   3; 6HR MAX TEMP:  11;

WOODRUFF       CLEAR      3  -2  81 CALM      30.26F
6HR MIN TEMP:   3; 6HR MAX TEMP:  11;

RHINELANDER    CLOUDY     6  -2  69 CALM      30.27S
6HR MIN TEMP:   6; 6HR MAX TEMP:  12;

EAGLE RIVER    CLEAR      1  -4  81 CALM      30.26S
6HR MIN TEMP:   1; 6HR MAX TEMP:  11;

LAND O LAKES   PTCLDY    -3  -6  85 CALM      30.27S
6HR MIN TEMP:  -3; 6HR MAX TEMP:  12;

PHILLIPS       CLOUDY     4   1  85 CALM      30.27S
6HR MIN TEMP:   4; 6HR MAX TEMP:  10;

TOMAHAWK       PTCLDY     4   0  83 CALM      30.29S
6HR MIN TEMP:   3; 6HR MAX TEMP:  12;

MEDFORD        CLOUDY     8   2  75 CALM      30.27F
6HR MIN TEMP:   8; 6HR MAX TEMP:  10;

MERRILL        CLOUDY    10   2  70 CALM      30.32S
6HR MIN TEMP:  10; 6HR MAX TEMP:  12;

$$

WIZ029-030-035-036-043>047-110100-
CENTRAL WISCONSIN

CITY           SKY/WX    TMP DP  RH WIND       PRES   REMARKS
WAUSAU         CLOUDY    11   2  67 CALM      30.31S
6HR MIN TEMP:  10; 6HR MAX TEMP:  12;

MOSINEE        CLOUDY    10   3  72 CALM      30.32F
MARSHFIELD     FLURRIES  13   3  64 CALM      30.28F
6HR MIN TEMP:  11; 6HR MAX TEMP:  13; 6HR PCP: TRACE;

STEVENS POINT  MOCLDY    13   4  69 SW5       30.33F WCI   5
6HR MIN TEMP:  13; 6HR MAX TEMP:  14;

WAUPACA        CLOUDY    18   7  62 CALM      30.36F
6HR MIN TEMP:  18; 6HR MAX TEMP:  21;

WAUTOMA        LGT SNOW  16  11  80 S3        30.35F
6HR MIN TEMP:  16; 6HR MAX TEMP:  17; 6HR PCP: TRACE;

WISC RAPIDS    LGT SNOW  15   8  73 CALM      30.33F
6HR MIN TEMP:  14; 6HR MAX TEMP:  16; 6HR PCP: TRACE;

CAMP DOUGLAS   LGT SNOW  16  12  86 E5        30.32F FOG     WCI   9
6HR MIN TEMP:  15; 6HR MAX TEMP:  17; 6HR PCP: TRACE;

$$

WIZ011>013-019>022-031-037>040-048>050-110100-
NORTHEAST WISCONSIN

CITY           SKY/WX    TMP DP  RH WIND       PRES   REMARKS
ANTIGO         CLOUDY     6   1  79 SW6       30.29S WCI  -5
6HR MIN TEMP:   5; 6HR MAX TEMP:  11;

SHAWANO        PTCLDY    15   6  67 CALM      30.36S
6HR MIN TEMP:  15; 6HR MAX TEMP:  20;

OCONTO         PTCLDY    10   3  73 CALM      30.37S
6HR MIN TEMP:  10; 6HR MAX TEMP:  18;

STURGEON BAY   PTCLDY    15   7  70 SW6       30.36S WCI   6
6HR MIN TEMP:  14; 6HR MAX TEMP:  19;

GREEN BAY      CLOUDY    19   9  65 CALM      30.36F
6HR MIN TEMP:  19; 6HR MAX TEMP:  23;

MANITOWOC      CLOUDY    18   9  68 SW7       30.38S WCI   9
6HR MIN TEMP:  18; 6HR MAX TEMP:  21;

APPLETON       MOCLDY    18   5  57 SW6       30.33F WCI   9
CLINTONVILLE   CLOUDY    16   7  67 CALM      30.35F
OSHKOSH        FLURRIES  17   8  67 S5        30.36F WCI  10
6HR MIN TEMP:  16; 6HR MAX TEMP:  18; 6HR PCP: TRACE;

$$

WIZ032>034-041-042-053>061-110100-
SOUTHWEST WISCONSIN

CITY           SKY/WX    TMP DP  RH WIND       PRES   REMARKS
LA CROSSE      LGT SNOW  17  12  80 E6        30.32F WCI   9
6HR MIN TEMP:  15; 6HR MAX TEMP:  17; 6HR PCP:  0.05;

SPARTA         LGT SNOW  15  12  90 CALM      30.33F
6HR MIN TEMP:  14; 6HR MAX TEMP:  17;

VIROQUA        CLOUDY    14  12  92 E7        30.27F WCI   4
6HR MIN TEMP:  11; 6HR MAX TEMP:  14;

BOSCOBEL       LGT SNOW  20  16  84 NE3       30.33F FOG
6HR MIN TEMP:  19; 6HR MAX TEMP:  21; 6HR PCP:  0.02;

PRAIRIE DU CHI LGT SNOW  20  16  86 E5        30.31F WCI  13
6HR MIN TEMP:  17; 6HR MAX TEMP:  20;

PLATTEVILLE    CLOUDY    20  20 100 SE5       30.31F WCI  14
6HR MIN TEMP:  19; 6HR MAX TEMP:  21;

$$

WIZ056-057-062-063-064-067-068-110100-
SOUTH CENTRAL WISCONSIN

CITY           SKY/WX    TMP DP  RH WIND       PRES   REMARKS
REEDSBURG      LGT SNOW  16  15  94 CALM      30.33F
6HR MIN TEMP:  15; 6HR MAX TEMP:  18; 6HR PCP:  0.01;

BARABOO/DELLS  LGT SNOW  17  14  88 CALM      30.32F VSB 1
6HR MIN TEMP:  16; 6HR MAX TEMP:  18;

LONE ROCK      LGT SNOW  19  15  84 E6        30.34F FOG     WCI  11
6HR MIN TEMP:  19; 6HR MAX TEMP:  21; 6HR PCP:  0.02;

MINERAL POINT  LGT SNOW  21  19  93 SE3       30.30F
MADISON        LGT SNOW  19  16  88 SE5       30.34F VSB 1   WCI  12
6HR MIN TEMP:  18; 6HR MAX TEMP:  20; 6HR PCP:  0.04;

MIDDLETON      CLOUDY    20  18  89 SE5       30.34F WCI  14
6HR MIN TEMP:  20; 6HR MAX TEMP:  22;

WATERTOWN      LGT SNOW  19  18  94 S3        30.36F
6HR MIN TEMP:  19; 6HR MAX TEMP:  20;

MONROE         LGT SNOW  19  19 100 SE6       30.32F WCI  11
JANESVILLE     LGT SNOW  21  21 100 CALM      30.35F
$$

WIZ051-052-058>065-066-070>072-110100-
SOUTHEAST WISCONSIN

CITY           SKY/WX    TMP DP  RH WIND       PRES   REMARKS
MILWAUKEE      LGT SNOW  22  15  75 SW7       30.39F WCI  13
6HR MIN TEMP:  22; 6HR MAX TEMP:  25; 6HR PCP: TRACE;

WAUKESHA       LGT SNOW  18  14  86 SW5       30.38F WCI  11
MILWAUKEE/TIMM LGT SNOW  19  12  73 SW7       30.39F WCI  10
RACINE         LGT SNOW  21  16  81 SW5       30.40F WCI  15
6HR MIN TEMP:  21; 6HR MAX TEMP:  24; 6HR PCP: TRACE;

BURLINGTON     LGT SNOW  25  23  92 CALM      30.37F
6HR MIN TEMP:  25; 6HR MAX TEMP:  27;

KENOSHA        LGT SNOW  21  17  84 SW6       30.39F FOG     WCI  13
6HR MIN TEMP:  21; 6HR MAX TEMP:  24; 6HR PCP: TRACE;

FOND DU LAC    FLURRIES  18   8  65 SW5       30.36F WCI  11
6HR MIN TEMP:  17; 6HR MAX TEMP:  19; 6HR PCP: TRACE;

SHEBOYGAN      CLOUDY    18   7  62 W6        30.37F WCI  10
6HR MIN TEMP:  18; 6HR MAX TEMP:  20;

WEST BEND      FLURRIES  19  14  79 SW5       30.36F WCI  13
JUNEAU         LGT SNOW  17  14  89 CALM      30.36F VSB 1
6HR MIN TEMP:  15; 6HR MAX TEMP:  18;

$$

LSZ147-162-110100-
LAKE SUPERIOR

STATION/POSITION TIME  TEMP    WIND        PRES    WAVE
                       AIR SEA DIR/SP/G            HT/PER
                 (UTC) (F)     (DEG/KT/KT) (MB)    (FT/S)
DEVILS ISLAND    0000   13     210/  9/ 13 1028.5F
PORT WING        2330    6     130/  1/  3 1027.8F
SAXON HARBOR     2340    4     200/  3/  4 1027.8S
$$

LMZ867-665-643>646-110100-
LAKE MICHIGAN

STATION/POSITION TIME  TEMP    WIND        PRES    WAVE
                C1F1C2F2C3F3C4F4C5F5C6F6C7F7C8M1C9M2Ca!



USA.gov is the U.S. government's official web portal to all federal, state and local government web resources and services.